Big Piney, WY

12:56 PM MDT on September 23, 2017 (GMT -0600)
Big Piney-Marbleton

Weather History for KBPI - November, 2013

Change the Weather History Date:

Thursday, November 7, 2013

  Actual Average Record
Temperature  
Mean Temperature 33 °F 28 °F  
Max Temperature 47 °F 43 °F 64 °F (2006)
Min Temperature 19 °F 14 °F -14 °F (2003)
Degree Days  
Heating Degree Days 32 37  
Month to date heating degree days 260 245  
Since 1 July heating degree days 1521 1825  
Cooling Degree Days 0 0  
Month to date cooling degree days 0 0  
Year to date cooling degree days 89 35  
Moisture  
Dew Point 24 °F    
Average Humidity 65    
Maximum Humidity 85    
Minimum Humidity 45    
Precipitation  
Precipitation 0.00 in 0.00 in 0.03 in (2001)
Month to date precipitation T 0.05  
Year to date precipitation 4.22 6.02  
Sea Level Pressure  
Sea Level Pressure 30.26 in    
Wind  
Wind Speed 4 mph (ESE)    
Max Wind Speed 18 mph    
Max Gust Speed 25 mph    
Visibility 10 miles    
Events      
T = Trace of Precipitation, MM = Missing Value Source: NWS Daily Summary

Daily Weather History Graph

Daily Weather History Graph

Search for Another Location

Airport or City:

Trip Planner

Search our weather history database for the weather conditions in past years. The results will help you decide how hot, cold, wet, or windy it might be!

Date:

Astronomy

Nov. 07, 2013 Rise Set
Actual Time 7:02 AM MST 5:05 PM MST
Civil Twilight 6:32 AM MST 5:35 PM MST
Nautical Twilight 5:58 AM MST 6:09 PM MST
Astronomical Twilight 5:25 AM MST 6:41 PM MST
Moon 11:14 AM MST (11/7) 9:20 PM MST (11/7)
Length of Visible Light 11h 03m
Length of Day
10h 03m
Waxing Crescent, 23% of the Moon is Illuminated
Nov 7
Waxing Crescent
Nov 9
First Quarter
Nov 17
Full
Nov 25
Last Quarter
Dec 2
New

Hourly Weather History & Observations

Time (MST) Temp. Windchill Dew Point Humidity Pressure Visibility Wind Dir Wind Speed Gust Speed Precip Events Conditions
12:53 AM 24.1 °F - 18.0 °F 77% 30.40 in 10.0 mi Calm Calm - N/A   Mostly Cloudy
1:53 AM 21.9 °F 14.5 °F 17.1 °F 82% 30.40 in 10.0 mi North 5.8 mph - N/A   Scattered Clouds
2:53 AM 26.1 °F - 21.0 °F 81% 30.39 in 10.0 mi Calm Calm - N/A   Overcast
3:53 AM 24.1 °F - 19.9 °F 84% 30.41 in 10.0 mi Calm Calm - N/A   Overcast
4:53 AM 21.9 °F 15.7 °F 18.0 °F 85% 30.44 in 10.0 mi ENE 4.6 mph - N/A   Partly Cloudy
5:53 AM 21.0 °F - 16.0 °F 81% 30.47 in 10.0 mi Calm Calm - N/A   Clear
6:53 AM 21.0 °F - 17.1 °F 85% 30.45 in 10.0 mi Calm Calm - N/A   Mostly Cloudy
7:53 AM 25.0 °F 18.1 °F 19.9 °F 81% 30.44 in 10.0 mi NE 5.8 mph - N/A   Overcast
8:53 AM 28.0 °F - 21.9 °F 78% 30.42 in 10.0 mi Calm Calm - N/A   Overcast
9:53 AM 30.0 °F - 23.0 °F 75% 30.40 in 10.0 mi Calm Calm - N/A   Overcast
10:53 AM 33.1 °F 28.7 °F 26.1 °F 75% 30.39 in 10.0 mi SSE 4.6 mph - N/A   Mostly Cloudy
11:53 AM 36.0 °F 33.3 °F 27.0 °F 70% 30.33 in 10.0 mi Variable 3.5 mph - N/A   Overcast
12:53 PM 39.9 °F 36.7 °F 28.0 °F 63% 30.28 in 10.0 mi SW 4.6 mph - N/A   Mostly Cloudy
1:53 PM 44.1 °F 38.6 °F 28.0 °F 53% 30.23 in 10.0 mi South 10.4 mph - N/A   Clear
2:53 PM 46.0 °F 43.1 °F 26.1 °F 46% 30.17 in 10.0 mi South 5.8 mph - N/A   Overcast
3:53 PM 46.9 °F - 27.0 °F 46% 30.15 in 10.0 mi Variable 4.6 mph - N/A   Overcast
4:53 PM 39.0 °F 35.7 °F 28.9 °F 67% 30.18 in 10.0 mi NE 4.6 mph - N/A   Overcast
5:53 PM 39.0 °F 35.7 °F 28.9 °F 67% 30.15 in 10.0 mi NW 4.6 mph - N/A   Scattered Clouds
6:53 PM 34.0 °F 28.0 °F 27.0 °F 75% 30.15 in 10.0 mi ESE 6.9 mph - N/A   Clear
7:53 PM 32.0 °F 27.5 °F 26.1 °F 79% 30.10 in 10.0 mi East 4.6 mph - N/A   Scattered Clouds
8:53 PM 30.9 °F 23.5 °F 26.1 °F 82% 30.05 in 10.0 mi ESE 8.1 mph - N/A   Clear
9:53 PM 35.1 °F 28.6 °F 28.0 °F 76% 30.01 in 10.0 mi SE 8.1 mph - N/A   Overcast
10:53 PM 30.0 °F - 25.0 °F 82% 30.00 in 10.0 mi Calm Calm - N/A   Clear
11:53 PM 39.9 °F 31.8 °F 26.1 °F 58% 29.90 in 10.0 mi WNW 15.0 mph - N/A   Clear